Thomson, GA

4:12 AM EDT on May 25, 2018 (GMT -0400)
Thomson-McDuffie County

Weather History for KHQU - January, 2014

Change the Weather History Date:

Wednesday, January 1, 2014

  Actual Average (WUND) Record (WUND)
Temperature  
Mean Temperature 40 °F -  
Max Temperature 49 °F - - (-1)
Min Temperature 32 °F - - (-1)
Degree Days  
Heating Degree Days 24    
Moisture  
Dew Point 40 °F    
Average Humidity 94    
Maximum Humidity 100    
Minimum Humidity 75    
Precipitation  
Precipitation 0.00 in - - ()
Sea Level Pressure  
Sea Level Pressure 30.33 in    
Wind  
Wind Speed 0 mph (North)    
Max Wind Speed 0 mph    
Max Gust Speed -    
Visibility 10 miles    
Events      
Averages and records for this station are not official NWS values.
T = Trace of Precipitation, MM = Missing Value Source: NWS Daily Summary

Daily Weather History Graph

Daily Weather History Graph

Search for Another Location

Airport or City:

Astronomy

Jan. 01, 2014 Rise Set
Actual Time 7:34 AM EST 5:33 PM EST
Civil Twilight 7:06 AM EST 6:00 PM EST
Nautical Twilight 6:35 AM EST 6:31 PM EST
Astronomical Twilight 6:05 AM EST 7:01 PM EST
Moon 7:26 AM EST (1/1) 6:12 PM EST (1/1)
Length of Visible Light 10h 53m
Length of Day
9h 58m
New Moon, 0% of the Moon is Illuminated
Jan 1
New Moon
Jan 7
First Quarter
Jan 15
Full
Jan 24
Last Quarter
Jan 30
New

Hourly Weather History & Observations

Time (EST) Temp. Dew Point Humidity Pressure Visibility Wind Dir Wind Speed Gust Speed Precip Events Conditions
12:15 AM 33.1 °F 33.1 °F 100% 30.41 in 10.0 mi Calm Calm - N/A   Clear
12:35 AM 33.3 °F 33.3 °F 100% 30.41 in 10.0 mi Calm Calm - N/A   Clear
12:55 AM 32.9 °F 32.9 °F 100% 30.40 in 10.0 mi Calm Calm - N/A   Clear
1:15 AM 32.5 °F 32.5 °F 100% 30.41 in 10.0 mi Calm Calm - N/A   Clear
1:35 AM 32.9 °F 32.9 °F 100% 30.41 in 10.0 mi Calm Calm - N/A   Clear
1:55 AM 33.1 °F 33.1 °F 100% 30.40 in 10.0 mi Calm Calm - N/A   Clear
2:15 AM 33.1 °F 33.1 °F 100% 30.40 in 10.0 mi Calm Calm - N/A   Clear
2:35 AM 32.5 °F 32.5 °F 100% 30.41 in 10.0 mi Calm Calm - N/A   Clear
2:55 AM 33.6 °F 33.6 °F 100% 30.39 in 10.0 mi Calm Calm - N/A   Clear
3:15 AM 33.8 °F 33.8 °F 100% 30.39 in 10.0 mi Calm Calm - N/A   Clear
3:35 AM 33.8 °F 33.8 °F 100% 30.38 in 10.0 mi Calm Calm - N/A   Clear
3:55 AM 33.4 °F 33.4 °F 100% 30.38 in 10.0 mi Calm Calm - N/A   Clear
4:15 AM 33.8 °F 33.8 °F 100% 30.39 in 10.0 mi Calm Calm - N/A   Clear
4:35 AM 33.8 °F 33.8 °F 100% 30.38 in 10.0 mi Calm Calm - N/A   Clear
4:55 AM 34.2 °F 34.2 °F 100% 30.38 in 10.0 mi Calm Calm - N/A   Clear
5:15 AM 34.7 °F 34.7 °F 100% 30.38 in 10.0 mi Calm Calm - N/A   Clear
5:35 AM 34.7 °F 34.7 °F 100% 30.38 in 10.0 mi Calm Calm - N/A   Clear
5:55 AM 34.7 °F 34.7 °F 100% 30.39 in 10.0 mi Calm Calm - N/A   Clear
6:15 AM 34.9 °F 34.9 °F 100% 30.39 in 10.0 mi Calm Calm - N/A   Scattered Clouds
6:35 AM 35.1 °F 35.1 °F 100% 30.39 in 10.0 mi Calm Calm - N/A   Clear
6:55 AM 34.9 °F 34.9 °F 100% 30.38 in 10.0 mi Calm Calm - N/A   Clear
7:15 AM 35.1 °F 35.1 °F 100% 30.38 in 10.0 mi Calm Calm - N/A   Clear
7:35 AM 35.1 °F 35.1 °F 100% 30.40 in 10.0 mi Calm Calm - N/A   Clear
7:55 AM 35.6 °F 35.6 °F 100% 30.41 in 10.0 mi Calm Calm - N/A   Clear
8:15 AM 35.6 °F 35.6 °F 100% 30.41 in 10.0 mi Calm Calm - N/A   Clear
8:35 AM 36.1 °F 36.1 °F 100% 30.41 in 10.0 mi Calm Calm - N/A   Clear
8:55 AM 37.0 °F 37.0 °F 100% 30.41 in 10.0 mi Calm Calm - N/A   Clear
9:15 AM 38.3 °F 38.3 °F 100% 30.41 in 10.0 mi Calm Calm - N/A   Clear
9:35 AM 39.4 °F 39.4 °F 100% 30.41 in 10.0 mi Calm Calm - N/A   Clear
9:55 AM 40.5 °F 40.3 °F 99% 30.40 in 10.0 mi Calm Calm - N/A   Clear
10:15 AM 42.8 °F 39.6 °F 88% 30.41 in 10.0 mi Calm Calm - N/A   Clear
10:35 AM 43.3 °F 40.1 °F 88% 30.41 in 10.0 mi Calm Calm - N/A   Clear
10:55 AM 44.1 °F 39.4 °F 84% 30.41 in 10.0 mi Calm Calm - N/A   Scattered Clouds
11:15 AM 44.8 °F 39.9 °F 83% 30.40 in 10.0 mi Calm Calm - N/A   Scattered Clouds
11:35 AM 45.5 °F 40.5 °F 83% 30.39 in 10.0 mi Calm Calm - N/A   Scattered Clouds
11:55 AM 46.0 °F 40.3 °F 80% 30.39 in 10.0 mi Calm Calm - N/A   Clear
12:15 PM 46.6 °F 40.3 °F 79% 30.37 in 10.0 mi Calm Calm - N/A   Mostly Cloudy
12:35 PM 47.1 °F 40.5 °F 78% 30.35 in 10.0 mi Calm Calm - N/A   Overcast
12:55 PM 47.3 °F 41.0 °F 79% 30.34 in 10.0 mi Calm Calm - N/A   Overcast
1:15 PM 47.5 °F 40.8 °F 78% 30.33 in 10.0 mi Calm Calm - N/A   Overcast
1:35 PM 47.7 °F 41.4 °F 79% 30.32 in 10.0 mi Calm Calm - N/A   Overcast
1:55 PM 48.4 °F 41.7 °F 78% 30.31 in 10.0 mi Calm Calm - N/A   Overcast
2:15 PM 48.7 °F 41.2 °F 75% 30.31 in 10.0 mi Calm Calm - N/A   Mostly Cloudy
2:35 PM 48.7 °F 42.3 °F 78% 30.31 in 10.0 mi Calm Calm - N/A   Overcast
2:55 PM 48.6 °F 42.8 °F 80% 30.31 in 10.0 mi Calm Calm - N/A   Overcast
3:15 PM 48.6 °F 43.7 °F 83% 30.30 in 10.0 mi Calm Calm - N/A   Overcast
3:35 PM 49.3 °F 43.3 °F 80% 30.29 in 10.0 mi Calm Calm - N/A   Scattered Clouds
3:55 PM 49.3 °F 43.2 °F 79% 30.29 in 10.0 mi Calm Calm - N/A   Mostly Cloudy
4:15 PM 49.1 °F 43.7 °F 82% 30.28 in 10.0 mi Calm Calm - N/A   Mostly Cloudy
4:35 PM 48.6 °F 44.2 °F 85% 30.27 in 10.0 mi Calm Calm - N/A   Mostly Cloudy
4:55 PM 48.2 °F 44.6 °F 87% 30.27 in 10.0 mi North - - N/A   Scattered Clouds
5:15 PM 47.5 °F 45.3 °F 92% 30.27 in 10.0 mi Calm Calm - N/A   Scattered Clouds
5:35 PM 46.9 °F 45.5 °F 95% 30.28 in 10.0 mi Calm Calm - N/A   Mostly Cloudy
5:55 PM 46.4 °F 45.5 °F 97% 30.27 in 10.0 mi Calm Calm - N/A   Overcast
6:15 PM 45.5 °F 45.5 °F 100% 30.27 in 10.0 mi Calm Calm - N/A   Overcast
6:35 PM 45.9 °F 45.3 °F 98% 30.26 in 10.0 mi Calm Calm - N/A   Overcast
6:55 PM 45.9 °F 45.0 °F 97% 30.27 in 10.0 mi Calm Calm - N/A   Overcast
7:15 PM 45.5 °F 45.3 °F 99% 30.26 in 10.0 mi Calm Calm - N/A   Overcast
7:35 PM 44.8 °F 44.8 °F 100% 30.25 in 10.0 mi Calm Calm - N/A   Mostly Cloudy
7:55 PM 44.6 °F 44.6 °F 100% 30.26 in 10.0 mi Calm Calm - N/A   Scattered Clouds
8:15 PM 44.1 °F 44.1 °F 100% 30.25 in 10.0 mi Calm Calm - N/A   Mostly Cloudy
8:35 PM 44.1 °F 44.1 °F 100% 30.25 in 10.0 mi Calm Calm - N/A   Mostly Cloudy
8:55 PM 43.9 °F 43.9 °F 100% 30.24 in 10.0 mi Calm Calm - N/A   Mostly Cloudy
9:15 PM 43.9 °F 43.9 °F 100% 30.24 in 7.0 mi Calm Calm - N/A   Overcast
9:35 PM 44.1 °F 44.1 °F 100% 30.23 in 10.0 mi Calm Calm - N/A   Overcast
9:55 PM 43.9 °F 43.9 °F 100% 30.24 in 7.0 mi Calm Calm - N/A   Overcast
10:15 PM 44.1 °F 44.1 °F 100% 30.24 in 10.0 mi Calm Calm - N/A   Overcast
10:35 PM 44.1 °F 44.1 °F 100% 30.24 in 7.0 mi Calm Calm - N/A   Overcast
10:55 PM 43.7 °F 43.7 °F 100% 30.21 in 7.0 mi Calm Calm - N/A   Mostly Cloudy
11:15 PM 43.7 °F 43.7 °F 100% 30.20 in 7.0 mi Calm Calm - N/A   Mostly Cloudy
11:35 PM 43.7 °F 43.7 °F 100% 30.21 in 7.0 mi Calm Calm - N/A   Overcast
11:55 PM 43.7 °F 43.7 °F 100% 30.20 in 7.0 mi Calm Calm - N/A   Overcast